Temp
-12 -12 -11 -12 -12 -12 -12 -12 -12 -12 -11 -11 -11 -10 -10 -10 -10 -10 -10 -10 -10 -10 -10 -10 -10 -10 -10 -10 -10 -10 -10 -10 -11 -11 -11 -11 -11 -11 -11 -11 -11 -11 -11 -12
-12 -11 -13 -14 -13 -13 -13 -12 -12 -12 -12 -11 -11 -11 -10 -10 -10 -10 -10 -10 -10 -10 -10 -10 -10 -10 -11 -11 -11 -11 -11 -11 -11 -11 -11 -11 -11 -11 -11 -11 -11 -11 -11 -11
-12 -13 -14 -15 -14 -14 -13 -12 -12 -12 -12 -12 -11 -11 -10 -10 -10 -10 -10 -10 -10 -10 -10 -10 -10 -10 -10 -11 -11 -11 -11 -11 -11 -11 -11 -11 -11 -11 -11 -11 -11 -11 -11 -11
-15 -15 -14 -16 -14 -14 -13 -12 -13 -12 -12 -12 -12 -11 -11 -10 -10 -10 -10 -10 -10 -10 -10 -10 -10 -10 -10 -10 -10 -10 -10 -10 -11 -11 -11 -11 -11 -11 -11 -11 -11 -11 -11 -11
-13 -15 -16 -14 -15 -14 -14 -13 -13 -13 -13 -12 -12 -11 -11 -10 -10 -10 -10 -10 -10 -10 -10 -11 -10 -10 -10 -10 -10 -10 -11 -10 -10 -11 -11 -11 -11 -11 -11 -11 -11 -11 -11 -12
-16 -16 -16 -17 -16 -15 -15 -14 -14 -14 -13 -12 -12 -11 -10 -11 -10 -10 -10 -11 -11 -11 -11 -11 -11 -10 -10 -11 -11 -11 -11 -11 -11 -11 -11 -11 -11 -11 -11 -11 -12 -12 -12 -12
-16 -16 -17 -17 -17 -16 -15 -15 -14 -14 -14 -12 -12 -11 -10 -11 -11 -11 -11 -11 -11 -11 -11 -11 -11 -11 -11 -11 -11 -11 -11 -11 -11 -11 -11 -11 -11 -11 -11 -12 -12 -12 -12 -12
-16 -16 -16 -16 -16 -15 -14 -14 -14 -13 -13 -12 -12 -11 -11 -11 -11 -11 -11 -11 -11 -11 -11 -11 -11 -11 -11 -11 -11 -11 -11 -11 -11 -11 -11 -11 -11 -11 -12 -12 -12 -12 -12 -12
-16 -17 -17 -16 -16 -15 -15 -15 -15 -15 -14 -13 -13 -12 -11 -11 -11 -11 -11 -11 -11 -11 -11 -11 -11 -11 -11 -11 -11 -11 -11 -11 -11 -11 -11 -11 -12 -12 -12 -12 -12 -12 -13 -13
-17 -17 -16 -17 -16 -16 -15 -16 -15 -15 -14 -13 -12 -12 -12 -12 -12 -12 -12 -12 -12 -12 -12 -12 -12 -11 -11 -11 -11 -11 -11 -12 -12 -12 -12 -12 -12 -12 -12 -12 -12 -13 -13 -13
-18 -17 -17 -18 -17 -16 -16 -15 -15 -15 -15 -14 -13 -12 -12 -12 -12 -12 -12 -12 -12 -12 -12 -12 -12 -12 -12 -12 -12 -12 -12 -12 -12 -12 -12 -13 -13 -13 -13 -13 -13 -13 -13 -13
-18 -18 -18 -18 -18 -17 -16 -16 -16 -15 -14 -14 -14 -13 -13 -13 -13 -12 -13 -13 -13 -13 -13 -12 -12 -12 -12 -12 -12 -12 -12 -12 -13 -13 -13 -13 -13 -13 -13 -13 -14 -14 -14 -14
-18 -18 -18 -19 -18 -18 -17 -16 -16 -16 -16 -16 -15 -13 -14 -13 -13 -13 -13 -13 -13 -13 -13 -13 -13 -13 -13 -13 -13 -13 -13 -13 -13 -13 -13 -14 -14 -14 -14 -14 -14 -14 -14 -15
-19 -19 -18 -19 -17 -17 -17 -17 -16 -17 -17 -16 -15 -14 -14 -14 -14 -14 -13 -14 -14 -14 -13 -13 -13 -13 -14 -14 -14 -14 -14 -14 -14 -14 -14 -14 -14 -14 -14 -14 -15 -15 -15 -16
-19 -18 -18 -18 -18 -18 -18 -18 -18 -17 -17 -17 -15 -14 -14 -14 -14 -14 -14 -14 -14 -14 -14 -14 -14 -14 -14 -14 -14 -14 -14 -14 -14 -14 -14 -14 -14 -14 -15 -15 -16 -16 -16 -16
-19 -18 -19 -19 -18 -18 -18 -18 -18 -18 -17 -17 -15 -14 -13 -14 -14 -14 -14 -15 -15 -15 -15 -14 -14 -14 -15 -15 -14 -14 -15 -14 -14 -14 -15 -15 -15 -15 -16 -16 -16 -16 -16 -17
-19 -19 -18 -18 -18 -19 -19 -17 -17 -17 -17 -16 -16 -13 -16 -16 -16 -16 -16 -16 -15 -15 -15 -15 -15 -15 -15 -15 -15 -15 -15 -15 -15 -15 -15 -15 -16 -16 -16 -17 -17 -17 -17 -17
-20 -20 -20 -19 -19 -20 -16 -17 -17 -17 -17 -17 -16 -15 -16 -16 -16 -16 -16 -16 -15 -16 -16 -16 -16 -15 -16 -16 -16 -16 -16 -16 -16 -16 -16 -16 -17 -17 -17 -17 -17 -17 -17 -18
-21 -21 -20 -20 -19 -18 -17 -16 -17 -17 -17 -17 -17 -16 -16 -17 -17 -16 -16 -16 -16 -16 -16 -17 -17 -17 -17 -17 -17 -17 -17 -17 -17 -17 -17 -17 -18 -17 -17 -17 -18 -18 -18 -18
-20 -20 -21 -20 -19 -17 -15 -17 -17 -18 -17 -17 -17 -16 -16 -17 -18 -14 -17 -17 -17 -17 -17 -17 -17 -17 -17 -17 -17 -17 -17 -17 -17 -18 -18 -18 -17 -18 -18 -18 -18 -18 -18 -19
-20 -20 -20 -20 -20 -17 -16 -17 -18 -19 -15 -17 -18 -17 -17 -17 -17 -17 -17 -17 -17 -17 -17 -17 -18 -17 -17 -17 -17 -17 -18 -18 -18 -18 -18 -18 -18 -18 -18 -18 -19 -19 -19 -20
-20 -20 -20 -20 -19 -18 -17 -17 -18 -18 -18 -18 -17 -18 -18 -17 -17 -17 -17 -17 -17 -17 -17 -17 -18 -18 -18 -18 -18 -18 -18 -18 -18 -18 -18 -18 -18 -18 -19 -19 -19 -20 -20 -19
-20 -20 -19 -19 -19 -18 -18 -18 -18 -19 -19 -18 -18 -18 -18 -18 -18 -18 -18 -18 -18 -18 -18 -18 -18 -18 -18 -18 -18 -18 -18 -18 -18 -19 -19 -19 -19 -19 -19 -20 -20 -20 -19 -19
-20 -20 -20 -20 -19 -19 -19 -19 -19 -19 -19 -19 -18 -18 -18 -18 -18 -18 -18 -18 -18 -18 -18 -18 -18 -18 -18 -18 -18 -19 -18 -19 -19 -19 -19 -19 -20 -20 -20 -20 -20 -20 -20 -20
-20 -19 -19 -20 -20 -20 -19 -19 -19 -19 -19 -19 -19 -18 -18 -18 -18 -18 -17 -18 -18 -18 -18 -18 -18 -18 -18 -18 -19 -19 -20 -20 -20 -20 -20 -20 -20 -20 -20 -20 -21 -21 -21 -22
-19 -19 -20 -20 -20 -20 -20 -20 -20 -20 -20 -20 -19 -19 -18 -18 -18 -18 -18 -18 -18 -18 -18 -18 -18 -18 -18 -19 -19 -20 -20 -20 -20 -20 -20 -20 -20 -20 -20 -21 -22 -22 -23 -23
Height
5743 5750 5758 5765 5770 5777 5784 5792 5799 5805 5810 5815 5823 5828 5832 5836 5839 5846 5850 5854 5856 5860 5862 5865 5867 5868 5870 5871 5872 5872 5875 5875 5875 5874 5874 5875 5874 5873 5872 5871 5872 5871 5871 5870
5736 5747 5753 5757 5763 5771 5778 5784 5790 5797 5805 5811 5816 5822 5826 5829 5835 5840 5845 5849 5852 5855 5858 5860 5863 5864 5866 5867 5868 5868 5869 5870 5870 5871 5870 5870 5870 5868 5867 5866 5865 5864 5864 5864
5732 5742 5743 5749 5756 5764 5771 5779 5783 5789 5797 5804 5810 5814 5817 5824 5829 5836 5840 5843 5847 5850 5853 5855 5857 5859 5861 5860 5862 5863 5864 5865 5865 5863 5863 5864 5863 5862 5862 5861 5860 5858 5857 5855
5723 5730 5737 5743 5751 5760 5765 5772 5778 5786 5792 5798 5803 5807 5812 5817 5823 5827 5831 5838 5842 5846 5848 5850 5852 5854 5855 5855 5855 5856 5856 5859 5862 5860 5858 5856 5857 5856 5854 5853 5852 5851 5850 5848
5717 5723 5730 5738 5749 5754 5760 5767 5773 5779 5785 5791 5796 5799 5806 5810 5816 5822 5828 5832 5836 5839 5842 5845 5846 5848 5849 5850 5850 5849 5850 5850 5853 5853 5853 5850 5849 5848 5848 5847 5845 5844 5842 5840
5711 5720 5725 5734 5742 5747 5753 5759 5765 5770 5776 5780 5788 5791 5798 5803 5812 5816 5820 5826 5830 5833 5837 5838 5840 5842 5843 5843 5844 5844 5843 5842 5844 5845 5844 5843 5842 5841 5841 5840 5838 5837 5835 5833
5702 5711 5719 5727 5733 5738 5745 5751 5756 5761 5765 5772 5779 5781 5789 5796 5803 5810 5815 5820 5823 5827 5829 5832 5834 5835 5835 5836 5836 5837 5837 5836 5836 5837 5836 5835 5835 5834 5833 5832 5830 5829 5827 5824
5699 5704 5711 5718 5726 5736 5739 5742 5746 5751 5758 5765 5769 5770 5779 5789 5798 5804 5808 5812 5815 5818 5821 5822 5824 5826 5827 5828 5829 5829 5829 5829 5828 5828 5827 5826 5826 5825 5825 5823 5822 5820 5818 5815
5692 5701 5707 5714 5720 5726 5730 5731 5744 5746 5751 5757 5761 5770 5775 5784 5790 5796 5801 5804 5807 5809 5811 5814 5815 5816 5818 5819 5820 5821 5821 5821 5820 5820 5819 5818 5817 5817 5816 5815 5813 5812 5809 5805
5690 5696 5700 5707 5712 5716 5723 5733 5734 5737 5743 5749 5754 5759 5766 5777 5783 5788 5793 5796 5798 5798 5801 5803 5805 5807 5809 5810 5810 5811 5812 5812 5811 5811 5810 5810 5808 5808 5807 5806 5803 5801 5798 5795
5679 5686 5692 5699 5702 5711 5717 5719 5724 5731 5734 5739 5747 5752 5763 5770 5775 5780 5782 5785 5789 5790 5792 5794 5796 5797 5799 5800 5800 5801 5801 5802 5803 5802 5801 5800 5799 5798 5797 5794 5792 5789 5787 5783
5670 5677 5683 5691 5697 5704 5708 5714 5719 5722 5730 5733 5739 5749 5757 5762 5767 5770 5773 5775 5778 5779 5782 5784 5786 5788 5789 5790 5789 5791 5792 5792 5792 5792 5792 5791 5790 5788 5786 5784 5781 5778 5775 5771
5663 5668 5675 5680 5686 5693 5699 5706 5712 5713 5717 5721 5728 5739 5744 5750 5757 5761 5763 5766 5768 5770 5773 5774 5775 5777 5778 5779 5780 5781 5782 5782 5782 5782 5781 5780 5778 5777 5774 5772 5769 5765 5761 5758
5655 5660 5667 5675 5685 5690 5693 5698 5702 5703 5705 5715 5719 5733 5739 5743 5748 5751 5754 5756 5758 5761 5762 5763 5765 5767 5769 5770 5771 5770 5772 5772 5772 5771 5769 5768 5767 5765 5762 5759 5755 5751 5748 5745
5646 5652 5659 5667 5673 5677 5681 5687 5690 5692 5702 5701 5717 5719 5730 5734 5736 5737 5738 5743 5747 5749 5751 5753 5755 5757 5758 5760 5760 5760 5760 5761 5759 5758 5757 5755 5753 5751 5747 5744 5741 5738 5734 5731
5639 5644 5651 5655 5660 5664 5668 5674 5680 5684 5691 5692 5703 5706 5720 5720 5719 5723 5728 5732 5735 5737 5740 5743 5744 5745 5747 5747 5747 5749 5749 5747 5746 5747 5744 5742 5739 5736 5733 5731 5728 5724 5721 5717
5631 5636 5640 5642 5649 5649 5650 5665 5671 5675 5679 5687 5688 5705 5710 5708 5712 5714 5716 5720 5724 5726 5729 5731 5732 5734 5735 5735 5736 5735 5735 5734 5733 5731 5729 5727 5726 5723 5720 5717 5714 5710 5708 5703
5618 5624 5627 5630 5633 5629 5650 5655 5662 5665 5671 5676 5682 5690 5692 5694 5697 5697 5701 5708 5712 5713 5715 5718 5719 5720 5720 5719 5719 5720 5719 5719 5718 5716 5715 5713 5711 5709 5706 5703 5700 5697 5693 5689
5608 5613 5616 5617 5621 5628 5638 5646 5650 5651 5661 5667 5673 5680 5678 5679 5678 5680 5689 5694 5695 5699 5702 5703 5703 5703 5703 5703 5704 5704 5705 5705 5703 5702 5701 5699 5696 5694 5692 5690 5687 5683 5679 5675
5596 5600 5605 5607 5608 5614 5640 5635 5638 5638 5639 5658 5656 5661 5662 5661 5657 5671 5676 5677 5679 5681 5682 5684 5685 5685 5687 5688 5689 5690 5690 5689 5688 5687 5685 5683 5681 5680 5677 5675 5671 5668 5665 5659
5584 5589 5592 5598 5597 5609 5616 5619 5620 5620 5643 5636 5641 5645 5644 5645 5651 5656 5656 5659 5662 5664 5667 5669 5670 5671 5672 5673 5673 5674 5674 5674 5673 5671 5670 5669 5667 5665 5662 5659 5656 5652 5647 5643
5576 5578 5581 5586 5589 5596 5602 5604 5606 5617 5618 5621 5623 5629 5632 5634 5638 5641 5643 5644 5647 5650 5652 5654 5654 5655 5656 5657 5658 5659 5659 5658 5657 5656 5655 5653 5651 5649 5645 5642 5638 5634 5630 5625
5562 5567 5570 5576 5583 5589 5589 5592 5594 5600 5606 5609 5611 5614 5619 5622 5624 5627 5631 5633 5635 5637 5638 5639 5640 5641 5643 5644 5644 5643 5643 5643 5642 5641 5639 5637 5635 5632 5629 5626 5622 5618 5613 5607
5552 5558 5561 5567 5573 5577 5578 5579 5582 5587 5592 5596 5598 5601 5604 5609 5612 5615 5618 5620 5622 5623 5625 5627 5628 5629 5629 5629 5629 5629 5629 5628 5626 5625 5623 5621 5619 5617 5615 5610 5605 5598 5592 5587
5541 5548 5552 5556 5561 5565 5567 5568 5570 5574 5577 5581 5585 5588 5591 5594 5598 5601 5604 5606 5608 5610 5612 5613 5614 5614 5614 5614 5614 5614 5613 5612 5610 5609 5608 5606 5604 5600 5596 5591 5586 5579 5573 5567
5530 5535 5540 5544 5548 5550 5553 5556 5558 5562 5563 5565 5569 5573 5577 5580 5583 5584 5586 5589 5592 5594 5596 5597 5599 5600 5601 5600 5600 5599 5598 5597 5595 5594 5592 5589 5586 5582 5577 5572 5565 5560 5553 5547
Wind_Speed
49 46 34 63 50 49 52 50 48 48 50 48 44 44 41 40 38 35 33 31 28 25 22 21 21 19 20 20 20 19 20 22 22 21 22 23 24 25 25 26 26 26 26 26
48 42 46 48 43 45 50 51 52 51 50 48 48 45 45 43 39 38 35 33 30 27 26 23 22 21 21 21 21 23 23 24 25 25 25 26 27 29 30 30 30 31 32 31
47 39 53 44 44 46 49 52 55 54 51 50 49 50 49 46 42 39 38 36 32 29 27 24 22 22 22 21 22 23 24 25 26 28 29 29 29 32 33 33 33 33 34 35
45 43 52 45 44 46 49 54 54 53 51 50 50 52 50 48 46 42 43 37 34 30 28 26 25 24 24 23 23 24 24 26 26 28 30 31 31 32 34 35 36 37 37 38
48 47 46 56 46 46 48 52 52 49 50 52 52 55 51 51 49 45 42 39 35 33 30 28 28 27 26 26 26 26 27 27 29 28 30 32 33 35 35 37 38 39 39 40
44 40 41 48 46 46 47 51 51 50 51 56 55 57 55 53 49 46 46 41 36 35 32 31 30 30 29 28 28 30 30 30 30 32 33 34 36 37 38 38 39 40 41 41
44 46 44 46 45 47 50 47 51 52 55 58 58 60 58 55 51 48 45 42 38 37 36 34 32 32 32 31 31 32 33 33 34 34 35 36 37 38 38 39 40 40 42 43
43 53 48 48 47 47 48 54 60 59 59 59 58 63 60 55 50 47 44 42 42 40 39 38 36 35 35 34 34 34 35 36 37 37 37 38 39 40 40 42 43 43 43 43
43 46 46 44 44 46 51 53 50 51 54 56 58 59 58 54 50 47 45 45 43 41 42 41 39 38 37 36 36 37 37 38 38 39 40 40 41 41 41 41 41 43 44 45
46 45 45 45 44 47 48 46 49 51 54 57 58 58 57 52 50 45 44 43 44 43 42 41 40 40 40 38 38 39 39 39 40 41 42 41 40 40 40 41 44 46 47 49
47 46 44 44 48 45 48 50 51 50 50 53 60 57 51 46 47 45 43 43 44 45 44 43 41 40 39 39 39 40 40 40 41 41 41 41 40 40 41 44 46 48 49 51
50 47 46 48 42 44 46 46 46 48 49 51 51 52 49 44 42 43 42 41 41 41 41 40 40 40 39 39 40 39 40 41 42 41 40 40 41 42 43 44 46 48 50 53
53 52 46 50 50 50 48 48 47 49 49 47 45 49 44 44 40 39 40 38 38 38 38 39 38 38 39 39 39 40 41 41 41 41 42 43 44 45 46 48 49 51 53 52
52 54 55 50 47 52 52 49 44 44 48 50 54 49 44 43 40 39 40 40 39 39 39 40 41 40 39 39 39 40 41 41 44 45 46 49 50 52 53 53 52 52 52 52
61 59 55 53 56 50 51 47 50 49 46 48 49 51 48 49 48 45 45 45 44 42 42 41 41 41 42 41 41 43 44 46 48 51 53 57 58 57 54 52 51 51 53 55
55 51 54 54 56 60 63 58 53 53 57 60 54 53 49 52 52 51 48 46 45 43 43 43 43 44 44 44 46 53 55 54 58 61 58 56 55 54 53 53 52 54 54 53
45 48 50 57 49 59 65 64 63 65 61 60 61 53 54 55 52 51 50 48 46 47 49 50 51 53 54 55 55 56 56 55 54 53 53 55 55 54 54 53 54 51 54 55
52 48 49 49 48 53 54 60 57 56 61 61 60 58 58 55 57 59 58 56 54 56 57 59 59 59 58 56 55 56 56 55 55 55 55 55 55 55 56 52 53 54 55 54
53 48 48 51 54 51 45 45 52 64 63 56 55 51 57 62 67 69 64 63 64 64 64 61 59 60 61 60 58 56 55 55 55 55 57 56 54 52 52 54 55 54 55 57
60 60 60 59 59 54 40 44 45 49 49 44 52 56 57 55 58 58 61 63 59 56 56 56 56 55 57 57 55 54 54 56 58 56 53 52 53 55 56 56 56 56 58 60
56 61 61 60 64 50 46 49 52 54 44 46 44 48 53 58 56 56 58 60 60 60 60 55 55 57 56 54 54 56 56 55 55 52 53 54 55 57 58 57 59 60 62 66
48 50 54 58 58 53 51 51 52 44 44 42 40 37 42 43 44 47 50 52 51 52 50 49 48 49 52 52 50 50 51 51 52 53 54 56 57 58 58 60 62 64 68 74
48 49 48 46 44 45 47 48 48 41 40 38 38 36 33 35 37 39 40 42 43 43 42 43 45 46 47 50 52 52 51 51 54 55 57 58 58 59 60 63 67 73 75 74
46 48 44 41 41 41 45 45 46 46 44 43 42 42 42 41 38 41 43 43 43 43 44 45 47 49 51 51 51 52 54 55 55 57 58 59 60 62 65 68 73 74 73 76
55 52 52 51 47 49 50 52 53 51 48 47 49 50 50 49 47 45 44 44 45 47 48 49 50 51 53 53 53 53 52 52 54 56 59 63 67 69 70 72 73 75 77 78
57 55 54 53 52 50 51 54 55 54 55 54 53 52 52 52 50 50 49 48 47 47 47 47 48 49 51 52 52 52 54 58 61 63 66 68 70 72 74 75 75 75 75 75
Wind_Direction
225 230 245 205 201 207 209 208 209 209 210 209 210 210 211 213 213 216 213 213 213 215 217 222 223 226 234 238 247 247 251 258 262 263 266 271 276 279 279 281 284 286 286 286
219 227 214 204 212 211 214 210 210 210 212 212 213 214 215 216 217 217 215 216 215 217 221 222 229 235 242 246 250 254 255 258 262 267 269 273 276 278 280 282 284 286 288 289
218 217 201 206 213 213 213 214 212 211 211 214 214 215 217 218 218 219 221 220 219 220 224 230 235 240 247 251 256 259 259 258 263 268 271 272 274 276 280 282 283 283 286 288
217 208 211 209 215 215 216 215 215 215 215 215 219 220 220 222 218 221 224 223 222 223 229 235 240 246 252 256 258 262 264 268 265 267 270 272 275 278 280 283 286 288 289 290
214 209 211 213 216 217 215 218 217 218 218 219 219 226 220 223 223 221 228 228 227 228 232 239 245 249 253 259 262 264 266 270 272 271 274 277 278 279 282 284 285 288 289 291
213 211 213 218 217 218 216 217 218 219 220 219 220 226 222 225 227 227 228 232 233 234 238 242 247 251 254 258 262 265 267 269 272 273 273 276 277 280 281 283 284 286 288 290
215 206 210 217 218 218 217 216 226 222 222 220 222 227 226 224 227 229 232 235 238 241 245 247 251 254 256 259 262 265 269 271 272 272 274 276 277 279 282 284 285 286 288 289
219 210 203 209 218 224 221 218 224 227 224 224 225 228 229 230 228 231 235 239 241 244 248 251 253 256 259 261 264 266 267 269 270 271 272 276 278 281 282 284 285 287 288 290
221 217 216 215 219 219 218 223 224 227 230 229 232 231 234 233 235 235 236 239 243 246 248 251 253 256 258 262 265 267 267 269 270 273 273 275 278 281 283 285 287 288 289 291
225 219 217 219 222 223 223 226 227 228 232 233 234 235 237 236 239 240 241 242 245 248 250 252 255 258 261 263 264 266 267 268 269 271 273 275 276 279 282 286 287 288 290 291
222 222 220 223 224 226 227 227 227 229 231 236 237 240 238 241 241 242 245 247 248 251 254 256 259 261 262 264 264 264 265 267 268 270 271 274 277 281 283 284 285 287 289 289
222 220 223 225 228 229 231 229 233 235 237 240 241 240 245 246 245 247 246 249 251 253 254 256 258 260 262 262 262 263 264 265 267 270 274 277 280 282 283 285 286 287 289 290
228 225 226 228 222 224 227 231 233 233 235 236 238 234 240 244 246 247 249 251 251 252 254 255 256 255 255 256 258 261 264 266 269 273 275 277 280 284 285 287 289 289 289 290
228 232 231 227 238 231 228 228 233 237 238 243 243 240 240 245 250 252 250 248 247 249 249 249 251 252 254 258 260 263 266 269 271 274 278 281 284 287 288 287 286 287 289 290
231 236 236 236 226 230 231 231 234 239 240 242 243 245 244 246 248 247 245 245 244 244 244 245 249 252 255 259 262 264 266 270 274 277 281 285 287 285 285 285 286 288 290 292
235 236 236 234 240 234 232 231 229 233 235 240 244 241 244 239 239 244 246 245 243 243 245 248 251 254 259 263 268 270 271 274 280 281 280 281 283 283 285 286 287 289 289 288
238 242 242 236 243 240 239 237 240 235 236 241 245 251 245 248 249 252 253 250 250 251 253 255 258 262 264 266 269 274 276 276 276 278 280 282 283 282 283 284 285 284 288 291
233 236 241 246 244 237 246 240 242 243 242 241 247 254 253 252 249 248 248 249 250 254 259 264 269 271 270 270 270 272 273 275 277 277 278 279 279 281 283 281 283 288 290 292
230 233 237 244 249 248 238 242 244 248 248 248 250 253 253 252 253 254 255 256 259 261 263 262 266 267 268 269 270 269 270 272 273 275 277 279 280 279 279 283 287 289 291 292
233 233 234 239 247 251 240 246 243 247 246 242 244 242 243 248 252 254 253 254 254 257 260 261 261 262 265 267 267 270 272 273 275 274 276 277 278 279 281 285 286 288 290 292
239 239 240 245 250 252 247 253 256 253 241 248 256 251 251 251 253 251 250 249 252 254 259 259 264 265 265 265 266 270 271 271 273 273 274 277 279 280 283 285 287 288 289 288
239 242 244 244 248 248 248 252 255 253 254 253 256 246 247 252 253 254 255 257 257 258 259 258 258 258 260 264 267 270 272 273 273 272 276 277 278 280 284 287 287 286 287 290
238 243 244 242 246 248 253 251 256 249 249 252 252 253 246 250 254 254 254 250 250 251 255 259 261 262 264 266 268 269 270 269 271 275 276 276 278 282 284 284 284 288 291 292
244 240 240 243 248 245 246 248 248 248 250 252 253 255 257 260 259 258 260 259 257 258 259 261 264 266 266 266 265 264 265 270 273 273 274 276 279 279 282 287 290 289 290 291
244 245 248 249 248 247 248 250 251 253 255 257 256 255 258 262 264 262 259 259 260 260 261 263 265 266 267 268 268 270 273 273 270 269 269 274 280 283 285 288 288 288 289 290
245 244 244 245 243 244 246 248 250 253 256 260 262 262 260 260 261 263 264 264 264 264 265 265 267 266 267 268 270 272 270 268 271 275 278 281 283 284 286 286 286 287 289 290